{"data":{"norad_id":40730,"intl_designator":"2015-033A","name":"GPS BIIF-10 (PRN 08)","alt_names":[],"object_type":"PAYLOAD","status":"ACTIVE","operator":null,"country":"US","launch_date":"2015-07-15","launch_site_code":"AFETR","launch_vehicle":null,"mission":null,"orbit_class":"UNKNOWN","rcs_meters":23.1,"size_class":null,"mass_kg":null,"dimensions":null,"purposes":["earth_obs","nav"],"wikipedia_slug":null,"has_3d_model":false,"image_url":null,"decayed_at":null,"tle_current":{"epoch":"2026-09-19T22:55:37.452576Z","epoch_age_seconds":61489,"freshness":"FRESH","line1":"1 40730U 15033A   26262.95529459  .00000028  00000+0  00000+0 0  9990","line2":"2 40730  53.9163 263.1722 0117513  30.5847 330.1153  2.00551382 81899","mean_motion":2.00551382,"eccentricity":0.0117513,"inclination_deg":53.9163,"raan_deg":263.1722,"arg_perigee_deg":30.5847,"mean_anomaly_deg":330.1153,"bstar":0,"rev_number":8189,"period_min":718.02048215255,"perigee_km":19871.158604261,"apogee_km":20495.421196125,"semimajor_km":26561.426900193,"source":"CELESTRAK","updated_at":"2026-09-20T09:00:46.118674Z"}}}